User: anonymous   Login
Location: Unspecified
(0.0000°N, 0.0000°E)
Time: 20:07:19
(UTC+00:00)
Language:

Transit 4A - Orbit

View from above orbital plane
View from above orbital plane
View from above satellite
View from above satellite

Ground track
Ground track

The orbit data is extracted from the following two-line orbital elements,

1   116U 61015A   19259.24425910 -.00000020  00000-0  43424-4 0  9998
2   116  66.8100 160.9798 0078878 206.3448 153.3611 13.91758763954004
Epoch (UTC): 16 September 2019 05:51:43
Eccentricity: 0.0078878
inclination: 66.8100°
perigee height: 865 km
apogee height: 980 km
right ascension of ascending node: 160.9798°
argument of perigee: 206.3448°
revolutions per day: 13.91758763
mean anomaly at epoch: 153.3611°
orbit number at epoch: 95400

The dashed part of the orbit path shows where the satellite is in the earth's shadow,  

DLR